Year,Month,Day,Hour,Minute,Value (Times are PST for temperature in C)
2018,05,25,00,00,12.30
2018,05,25,00,01,12.30
2018,05,25,00,02,12.40
2018,05,25,00,03,12.40
2018,05,25,00,04,12.40
2018,05,25,00,05,12.40
2018,05,25,00,06,12.40
2018,05,25,00,07,12.40
2018,05,25,00,08,12.40
2018,05,25,00,09,12.40
2018,05,25,00,10,12.40
2018,05,25,00,11,12.30
2018,05,25,00,12,12.30
2018,05,25,00,13,12.30
2018,05,25,00,14,12.20
2018,05,25,00,15,12.20
2018,05,25,00,16,12.20
2018,05,25,00,17,12.10
2018,05,25,00,18,12.10
2018,05,25,00,19,12.00
2018,05,25,00,20,12.00
2018,05,25,00,21,11.90
2018,05,25,00,22,11.80
2018,05,25,00,23,11.80
2018,05,25,00,24,11.80
2018,05,25,00,25,11.70
2018,05,25,00,26,11.70
2018,05,25,00,27,11.70
2018,05,25,00,28,11.60
2018,05,25,00,29,11.60
2018,05,25,00,30,11.60
2018,05,25,00,31,11.50
2018,05,25,00,32,11.50
2018,05,25,00,33,11.40
2018,05,25,00,34,11.40
2018,05,25,00,35,11.40
2018,05,25,00,36,11.40
2018,05,25,00,37,11.40
2018,05,25,00,38,11.40
2018,05,25,00,39,11.30
2018,05,25,00,40,11.30
2018,05,25,00,41,11.30
2018,05,25,00,42,11.30
2018,05,25,00,43,11.30
2018,05,25,00,44,11.30
2018,05,25,00,45,11.30
2018,05,25,00,46,11.30
2018,05,25,00,47,11.30
2018,05,25,00,48,11.30
2018,05,25,00,49,11.30
2018,05,25,00,50,11.30
2018,05,25,00,51,11.20
2018,05,25,00,52,11.20
2018,05,25,00,53,11.10
2018,05,25,00,54,11.10
2018,05,25,00,55,11.00
2018,05,25,00,56,11.00
2018,05,25,00,57,10.90
2018,05,25,00,58,10.90
2018,05,25,00,59,10.90
2018,05,25,01,00,10.80
2018,05,25,01,01,10.80
2018,05,25,01,02,10.80
2018,05,25,01,03,10.80
2018,05,25,01,04,10.80
2018,05,25,01,05,10.80
2018,05,25,01,06,10.90
2018,05,25,01,07,10.90
2018,05,25,01,08,10.90
2018,05,25,01,09,11.00
2018,05,25,01,10,11.00
2018,05,25,01,11,11.00
2018,05,25,01,12,11.10
2018,05,25,01,13,11.10
2018,05,25,01,14,11.20
2018,05,25,01,15,11.20
2018,05,25,01,16,11.20
2018,05,25,01,17,11.20
2018,05,25,01,18,11.20
2018,05,25,01,19,11.20
2018,05,25,01,20,11.20
2018,05,25,01,21,11.20
2018,05,25,01,22,11.20
2018,05,25,01,23,11.20
2018,05,25,01,24,11.20
2018,05,25,01,25,11.20
2018,05,25,01,26,11.20
2018,05,25,01,27,11.10
2018,05,25,01,28,11.10
2018,05,25,01,29,11.10
2018,05,25,01,30,11.10
2018,05,25,01,31,11.10
2018,05,25,01,32,11.10
2018,05,25,01,33,11.10
2018,05,25,01,34,11.10
2018,05,25,01,35,11.10
2018,05,25,01,36,11.20
2018,05,25,01,37,11.20
2018,05,25,01,38,11.20
2018,05,25,01,39,11.20
2018,05,25,01,40,11.30
2018,05,25,01,41,11.30
2018,05,25,01,42,11.30
2018,05,25,01,43,11.30
2018,05,25,01,44,11.30
2018,05,25,01,45,11.30
2018,05,25,01,46,11.30
2018,05,25,01,47,11.30
2018,05,25,01,48,11.30
2018,05,25,01,49,11.30
2018,05,25,01,50,11.30
2018,05,25,01,51,11.30
2018,05,25,01,52,11.30
2018,05,25,01,53,11.30
2018,05,25,01,54,11.30
2018,05,25,01,55,11.30
2018,05,25,01,56,11.30
2018,05,25,01,57,11.30
2018,05,25,01,58,11.30
2018,05,25,01,59,11.30
2018,05,25,02,00,11.30
2018,05,25,02,01,11.30
2018,05,25,02,02,11.30
2018,05,25,02,03,11.30
2018,05,25,02,04,11.30
2018,05,25,02,05,11.30
2018,05,25,02,06,11.30
2018,05,25,02,07,11.30
2018,05,25,02,08,11.20
2018,05,25,02,09,11.20
2018,05,25,02,10,11.20
2018,05,25,02,11,11.10
2018,05,25,02,12,11.10
2018,05,25,02,13,11.10
2018,05,25,02,14,11.00
2018,05,25,02,15,11.00
2018,05,25,02,16,10.90
2018,05,25,02,17,10.90
2018,05,25,02,18,10.90
2018,05,25,02,19,10.90
2018,05,25,02,20,10.80
2018,05,25,02,21,10.80
2018,05,25,02,22,10.80
2018,05,25,02,23,10.80
2018,05,25,02,24,10.70
2018,05,25,02,25,10.70
2018,05,25,02,26,10.70
2018,05,25,02,27,10.70
2018,05,25,02,28,10.70
2018,05,25,02,29,10.70
2018,05,25,02,30,10.70
2018,05,25,02,31,10.70
2018,05,25,02,32,10.70
2018,05,25,02,33,10.70
2018,05,25,02,34,10.70
2018,05,25,02,35,10.70
2018,05,25,02,36,10.70
2018,05,25,02,37,10.70
2018,05,25,02,38,10.60
2018,05,25,02,39,10.60
2018,05,25,02,40,10.60
2018,05,25,02,41,10.60
2018,05,25,02,42,10.50
2018,05,25,02,43,10.50
2018,05,25,02,44,10.50
2018,05,25,02,45,10.50
2018,05,25,02,46,10.40
2018,05,25,02,47,10.40
2018,05,25,02,48,10.40
2018,05,25,02,49,10.40
2018,05,25,02,50,10.30
2018,05,25,02,51,10.30
2018,05,25,02,52,10.30
2018,05,25,02,53,10.30
2018,05,25,02,54,10.30
2018,05,25,02,55,10.30
2018,05,25,02,56,10.30
2018,05,25,02,57,10.30
2018,05,25,02,58,10.30
2018,05,25,02,59,10.30
2018,05,25,03,00,10.30
2018,05,25,03,01,10.30
2018,05,25,03,02,10.30
2018,05,25,03,03,10.30
2018,05,25,03,04,10.30
2018,05,25,03,05,10.30
2018,05,25,03,06,10.30
2018,05,25,03,07,10.30
2018,05,25,03,08,10.20
2018,05,25,03,09,10.20
2018,05,25,03,10,10.20
2018,05,25,03,11,10.20
2018,05,25,03,12,10.20
2018,05,25,03,13,10.20
2018,05,25,03,14,10.20
2018,05,25,03,15,10.20
2018,05,25,03,16,10.20
2018,05,25,03,17,10.20
2018,05,25,03,18,10.20
2018,05,25,03,19,10.20
2018,05,25,03,20,10.30
2018,05,25,03,21,10.30
2018,05,25,03,22,10.30
2018,05,25,03,23,10.30
2018,05,25,03,24,10.30
2018,05,25,03,25,10.40
2018,05,25,03,26,10.40
2018,05,25,03,27,10.40
2018,05,25,03,28,10.40
2018,05,25,03,29,10.40
2018,05,25,03,30,10.40
2018,05,25,03,31,10.40
2018,05,25,03,32,10.40
2018,05,25,03,33,10.50
2018,05,25,03,34,10.50
2018,05,25,03,35,10.50
2018,05,25,03,36,10.50
2018,05,25,03,37,10.50
2018,05,25,03,38,10.50
2018,05,25,03,39,10.50
2018,05,25,03,40,10.50
2018,05,25,03,41,10.50
2018,05,25,03,42,10.50
2018,05,25,03,43,10.50
2018,05,25,03,44,10.50
2018,05,25,03,45,10.50
2018,05,25,03,46,10.50
2018,05,25,03,47,10.50
2018,05,25,03,48,10.50
2018,05,25,03,49,10.50
2018,05,25,03,50,10.50
2018,05,25,03,51,10.40
2018,05,25,03,52,10.40
2018,05,25,03,53,10.50
2018,05,25,03,54,10.50
2018,05,25,03,55,10.50
2018,05,25,03,56,10.40
2018,05,25,03,57,10.50
2018,05,25,03,58,10.50
2018,05,25,03,59,10.50
2018,05,25,04,00,10.50
2018,05,25,04,01,10.50
2018,05,25,04,02,10.50
2018,05,25,04,03,10.50
2018,05,25,04,04,10.60
2018,05,25,04,08,10.60
2018,05,25,04,09,10.50
2018,05,25,04,10,10.50
2018,05,25,04,11,10.50
2018,05,25,04,12,10.50
2018,05,25,04,13,10.40
2018,05,25,04,14,10.40
2018,05,25,04,15,10.40
2018,05,25,04,16,10.40
2018,05,25,04,17,10.30
2018,05,25,04,18,10.30
2018,05,25,04,19,10.20
2018,05,25,04,20,10.20
2018,05,25,04,21,10.10
2018,05,25,04,22,10.10
2018,05,25,04,23,10.10
2018,05,25,04,24,10.10
2018,05,25,04,25,10.10
2018,05,25,04,26,10.10
2018,05,25,04,27,10.10
2018,05,25,04,28,10.10
2018,05,25,04,29,10.10
2018,05,25,04,30,10.10
2018,05,25,04,31,10.00
2018,05,25,04,32,10.00
2018,05,25,04,33,10.00
2018,05,25,04,34,10.00
2018,05,25,04,35,9.90
2018,05,25,04,36,9.90
2018,05,25,04,37,9.90
2018,05,25,04,38,9.80
2018,05,25,04,39,9.80
2018,05,25,04,40,9.80
2018,05,25,04,41,9.80
2018,05,25,04,42,9.80
2018,05,25,04,43,9.80
2018,05,25,04,44,9.80
2018,05,25,04,45,9.70
2018,05,25,04,46,9.70
2018,05,25,04,47,9.60
2018,05,25,04,48,9.60
2018,05,25,04,49,9.50
2018,05,25,04,50,9.50
2018,05,25,04,51,9.40
2018,05,25,04,52,9.40
2018,05,25,04,53,9.40
2018,05,25,04,54,9.30
2018,05,25,04,55,9.30
2018,05,25,04,56,9.30
2018,05,25,04,57,9.30
2018,05,25,04,58,9.30
2018,05,25,04,59,9.30
2018,05,25,05,00,9.20
2018,05,25,05,01,9.20
2018,05,25,05,02,9.20
2018,05,25,05,03,9.20
2018,05,25,05,04,9.20
2018,05,25,05,05,9.20
2018,05,25,05,06,9.20
2018,05,25,05,07,9.20
2018,05,25,05,08,9.20
2018,05,25,05,09,9.20
2018,05,25,05,10,9.20
2018,05,25,05,11,9.20
2018,05,25,05,12,9.20
2018,05,25,05,13,9.20
2018,05,25,05,14,9.20
2018,05,25,05,15,9.20
2018,05,25,05,16,9.20
2018,05,25,05,17,9.20
2018,05,25,05,18,9.20
2018,05,25,05,19,9.20
2018,05,25,05,20,9.20
2018,05,25,05,21,9.20
2018,05,25,05,22,9.20
2018,05,25,05,23,9.20
2018,05,25,05,24,9.20
2018,05,25,05,25,9.20
2018,05,25,05,26,9.20
2018,05,25,05,27,9.20
2018,05,25,05,28,9.20
2018,05,25,05,29,9.20
2018,05,25,05,30,9.10
2018,05,25,05,31,9.10
2018,05,25,05,32,9.10
2018,05,25,05,33,9.00
2018,05,25,05,34,9.00
2018,05,25,05,35,9.00
2018,05,25,05,36,8.90
2018,05,25,05,37,8.90
2018,05,25,05,38,8.90
2018,05,25,05,39,8.90
2018,05,25,05,40,8.90
2018,05,25,05,41,8.90
2018,05,25,05,42,8.90
2018,05,25,05,43,8.90
2018,05,25,05,44,8.90
2018,05,25,05,45,8.90
2018,05,25,05,46,8.90
2018,05,25,05,47,8.90
2018,05,25,05,48,8.90
2018,05,25,05,49,8.90
2018,05,25,05,50,9.00
2018,05,25,05,51,9.00
2018,05,25,05,52,9.00
2018,05,25,05,53,9.10
2018,05,25,05,54,9.10
2018,05,25,05,55,9.20
2018,05,25,05,56,9.20
2018,05,25,05,57,9.20
2018,05,25,05,58,9.20
2018,05,25,05,59,9.20
2018,05,25,06,00,9.20
2018,05,25,06,01,9.20
2018,05,25,06,02,9.20
2018,05,25,06,03,9.20
2018,05,25,06,04,9.20
2018,05,25,06,05,9.10
2018,05,25,06,06,9.10
2018,05,25,06,07,9.10
2018,05,25,06,08,9.10
2018,05,25,06,09,9.10
2018,05,25,06,10,9.10
2018,05,25,06,11,9.10
2018,05,25,06,12,9.10
2018,05,25,06,13,9.10
2018,05,25,06,14,9.10
2018,05,25,06,15,9.10
2018,05,25,06,16,9.10
2018,05,25,06,17,9.10
2018,05,25,06,18,9.20
2018,05,25,06,19,9.20
2018,05,25,06,20,9.20
2018,05,25,06,21,9.20
2018,05,25,06,22,9.30
2018,05,25,06,23,9.30
2018,05,25,06,24,9.30
2018,05,25,06,25,9.40
2018,05,25,06,26,9.40
2018,05,25,06,27,9.50
2018,05,25,06,28,9.50
2018,05,25,06,29,9.60
2018,05,25,06,30,9.60
2018,05,25,06,31,9.70
2018,05,25,06,32,9.70
2018,05,25,06,33,9.80
2018,05,25,06,34,9.80
2018,05,25,06,35,9.80
2018,05,25,06,36,9.90
2018,05,25,06,37,9.90
2018,05,25,06,38,9.90
2018,05,25,06,39,10.00
2018,05,25,06,40,10.00
2018,05,25,06,41,10.00
2018,05,25,06,42,10.10
2018,05,25,06,43,10.10
2018,05,25,06,44,10.10
2018,05,25,06,45,10.20
2018,05,25,06,46,10.20
2018,05,25,06,47,10.20
2018,05,25,06,48,10.10
2018,05,25,06,49,10.10
2018,05,25,06,50,10.10
2018,05,25,06,51,10.10
2018,05,25,06,52,10.10
2018,05,25,06,53,10.10
2018,05,25,06,54,10.10
2018,05,25,06,55,10.10
2018,05,25,06,56,10.10
2018,05,25,06,57,10.10
2018,05,25,06,58,10.00
2018,05,25,06,59,10.00
2018,05,25,07,00,10.00
2018,05,25,07,01,10.00
2018,05,25,07,02,10.00
2018,05,25,07,03,10.10
2018,05,25,07,04,10.10
2018,05,25,07,05,10.10
2018,05,25,07,06,10.20
2018,05,25,07,07,10.20
2018,05,25,07,08,10.30
2018,05,25,07,09,10.30
2018,05,25,07,10,10.40
2018,05,25,07,11,10.40
2018,05,25,07,12,10.40
2018,05,25,07,13,10.40
2018,05,25,07,14,10.50
2018,05,25,07,15,10.50
2018,05,25,07,16,10.50
2018,05,25,07,17,10.50
2018,05,25,07,18,10.50
2018,05,25,07,19,10.60
2018,05,25,07,20,10.60
2018,05,25,07,21,10.60
2018,05,25,07,22,10.70
2018,05,25,07,23,10.70
2018,05,25,07,24,10.80
2018,05,25,07,25,10.80
2018,05,25,07,26,10.90
2018,05,25,07,27,10.90
2018,05,25,07,28,11.00
2018,05,25,07,29,11.10
2018,05,25,07,30,11.20
2018,05,25,07,31,11.20
2018,05,25,07,32,11.30
2018,05,25,07,33,11.40
2018,05,25,07,34,11.50
2018,05,25,07,35,11.60
2018,05,25,07,36,11.70
2018,05,25,07,37,11.70
2018,05,25,07,38,11.80
2018,05,25,07,39,11.90
2018,05,25,07,40,11.90
2018,05,25,07,41,12.00
2018,05,25,07,42,12.10
2018,05,25,07,43,12.10
2018,05,25,07,44,12.20
2018,05,25,07,45,12.30
2018,05,25,07,46,12.30
2018,05,25,07,47,12.40
2018,05,25,07,48,12.40
2018,05,25,07,49,12.50
2018,05,25,07,50,12.50
2018,05,25,07,51,12.60
2018,05,25,07,52,12.60
2018,05,25,07,53,12.70
2018,05,25,07,54,12.80
2018,05,25,07,55,12.80
2018,05,25,07,56,12.80
2018,05,25,07,57,12.90
2018,05,25,07,58,12.90
2018,05,25,07,59,13.00
2018,05,25,08,00,13.00
2018,05,25,08,01,13.10
2018,05,25,08,02,13.10
2018,05,25,08,03,13.20
2018,05,25,08,04,13.20
2018,05,25,08,05,13.30
2018,05,25,08,06,13.30
2018,05,25,08,07,13.40
2018,05,25,08,08,13.40
2018,05,25,08,09,13.50
2018,05,25,08,10,13.50
2018,05,25,08,11,13.60
2018,05,25,08,12,13.60
2018,05,25,08,13,13.70
2018,05,25,08,14,13.70
2018,05,25,08,15,13.70
2018,05,25,08,16,13.80
2018,05,25,08,17,13.80
2018,05,25,08,18,13.80
2018,05,25,08,19,13.80
2018,05,25,08,20,13.80
2018,05,25,08,21,13.90
2018,05,25,08,22,13.90
2018,05,25,08,23,13.90
2018,05,25,08,24,14.00
2018,05,25,08,25,14.00
2018,05,25,08,26,14.10
2018,05,25,08,27,14.10
2018,05,25,08,28,14.10
2018,05,25,08,29,14.20
2018,05,25,08,30,14.20
2018,05,25,08,31,14.20
2018,05,25,08,32,14.30
2018,05,25,08,33,14.30
2018,05,25,08,34,14.30
2018,05,25,08,35,14.30
2018,05,25,08,36,14.40
2018,05,25,08,37,14.40
2018,05,25,08,38,14.40
2018,05,25,08,39,14.50
2018,05,25,08,40,14.50
2018,05,25,08,41,14.50
2018,05,25,08,42,14.60
2018,05,25,08,43,14.70
2018,05,25,08,44,14.70
2018,05,25,08,45,14.80
2018,05,25,08,46,14.80
2018,05,25,08,47,14.80
2018,05,25,08,48,14.90
2018,05,25,08,49,15.00
2018,05,25,08,50,15.00
2018,05,25,08,51,15.10
2018,05,25,08,52,15.20
2018,05,25,08,53,15.30
2018,05,25,08,54,15.40
2018,05,25,08,55,15.50
2018,05,25,08,56,15.60
2018,05,25,08,57,15.60
2018,05,25,08,58,15.70
2018,05,25,08,59,15.70
2018,05,25,09,00,15.80
2018,05,25,09,01,15.80
2018,05,25,09,02,15.90
2018,05,25,09,03,15.90
2018,05,25,09,04,16.00
2018,05,25,09,05,16.00
2018,05,25,09,06,16.10
2018,05,25,09,07,16.10
2018,05,25,09,08,16.20
2018,05,25,09,09,16.20
2018,05,25,09,10,16.20
2018,05,25,09,11,16.30
2018,05,25,09,12,16.30
2018,05,25,09,13,16.30
2018,05,25,09,14,16.30
2018,05,25,09,15,16.40
2018,05,25,09,16,16.40
2018,05,25,09,17,16.40
2018,05,25,09,18,16.40
2018,05,25,09,19,16.50
2018,05,25,09,20,16.50
2018,05,25,09,21,16.60
2018,05,25,09,22,16.60
2018,05,25,09,23,16.60
2018,05,25,09,24,16.70
2018,05,25,09,25,16.70
2018,05,25,09,26,16.70
2018,05,25,09,27,16.70
2018,05,25,09,28,16.70
2018,05,25,09,29,16.70
2018,05,25,09,30,16.80
2018,05,25,09,31,16.80
2018,05,25,09,32,16.80
2018,05,25,09,33,16.90
2018,05,25,09,34,17.00
2018,05,25,09,35,17.00
2018,05,25,09,36,17.10
2018,05,25,09,37,17.20
2018,05,25,09,38,17.20
2018,05,25,09,39,17.30
2018,05,25,09,40,17.30
2018,05,25,09,41,17.30
2018,05,25,09,42,17.40
2018,05,25,09,43,17.40
2018,05,25,09,44,17.40
2018,05,25,09,45,17.50
2018,05,25,09,46,17.60
2018,05,25,09,47,17.70
2018,05,25,09,48,17.80
2018,05,25,09,49,17.90
2018,05,25,09,50,18.10
2018,05,25,09,51,18.20
2018,05,25,09,52,18.30
2018,05,25,09,53,18.40
2018,05,25,09,54,18.50
2018,05,25,09,55,18.70
2018,05,25,09,56,18.80
2018,05,25,09,57,18.80
2018,05,25,09,58,18.80
2018,05,25,09,59,18.90
2018,05,25,10,00,18.90
2018,05,25,10,01,18.90
2018,05,25,10,02,18.90
2018,05,25,10,03,18.90
2018,05,25,10,04,18.90
2018,05,25,10,05,18.90
2018,05,25,10,06,18.90
2018,05,25,10,07,18.80
2018,05,25,10,08,18.90
2018,05,25,10,09,18.90
2018,05,25,10,10,18.90
2018,05,25,10,11,18.90
2018,05,25,10,12,18.80
2018,05,25,10,13,18.70
2018,05,25,10,14,18.50
2018,05,25,10,15,18.30
2018,05,25,10,16,18.10
2018,05,25,10,17,17.80
2018,05,25,10,18,17.50
2018,05,25,10,19,17.30
2018,05,25,10,20,17.00
2018,05,25,10,21,16.80
2018,05,25,10,22,16.60
2018,05,25,10,23,16.50
2018,05,25,10,24,16.30
2018,05,25,10,25,16.20
2018,05,25,10,26,16.00
2018,05,25,10,27,15.90
2018,05,25,10,28,15.90
2018,05,25,10,29,15.80
2018,05,25,10,30,15.80
2018,05,25,10,31,15.80
2018,05,25,10,32,15.80
2018,05,25,10,33,15.80
2018,05,25,10,34,15.80
2018,05,25,10,35,15.70
2018,05,25,10,36,15.70
2018,05,25,10,37,15.70
2018,05,25,10,38,15.70
2018,05,25,10,39,15.70
2018,05,25,10,40,15.70
2018,05,25,10,41,15.70
2018,05,25,10,42,15.80
2018,05,25,10,43,15.80
2018,05,25,10,44,15.90
2018,05,25,10,45,15.90
2018,05,25,10,46,16.00
2018,05,25,10,47,16.00
2018,05,25,10,48,16.10
2018,05,25,10,49,16.20
2018,05,25,10,50,16.30
2018,05,25,10,51,16.40
2018,05,25,10,52,16.50
2018,05,25,10,53,16.50
2018,05,25,10,54,16.60
2018,05,25,10,55,16.60
2018,05,25,10,56,16.60
2018,05,25,10,57,16.70
2018,05,25,10,58,16.70
2018,05,25,10,59,16.70
2018,05,25,11,00,16.70
2018,05,25,11,01,16.70
2018,05,25,11,02,16.70
2018,05,25,11,03,16.70
2018,05,25,11,04,16.60
2018,05,25,11,05,16.60
2018,05,25,11,06,16.60
2018,05,25,11,07,16.50
2018,05,25,11,08,16.50
2018,05,25,11,09,16.60
2018,05,25,11,10,16.60
2018,05,25,11,11,16.60
2018,05,25,11,12,16.60
2018,05,25,11,13,16.70
2018,05,25,11,14,16.70
2018,05,25,11,15,16.80
2018,05,25,11,16,16.80
2018,05,25,11,17,16.80
2018,05,25,11,18,16.90
2018,05,25,11,19,16.90
2018,05,25,11,20,17.00
2018,05,25,11,21,17.00
2018,05,25,11,22,17.10
2018,05,25,11,23,17.10
2018,05,25,11,24,17.10
2018,05,25,11,25,17.10
2018,05,25,11,26,17.10
2018,05,25,11,27,17.20
2018,05,25,11,28,17.20
2018,05,25,11,29,17.20
2018,05,25,11,30,17.20
2018,05,25,11,31,17.20
2018,05,25,11,32,17.10
2018,05,25,11,33,17.00
2018,05,25,11,34,16.90
2018,05,25,11,35,16.80
2018,05,25,11,36,16.80
2018,05,25,11,37,16.80
2018,05,25,11,38,16.80
2018,05,25,11,39,16.80
2018,05,25,11,40,16.80
2018,05,25,11,41,16.70
2018,05,25,11,42,16.70
2018,05,25,11,43,16.70
2018,05,25,11,44,16.70
2018,05,25,11,45,16.80
2018,05,25,11,46,16.80
2018,05,25,11,47,16.80
2018,05,25,11,48,16.80
2018,05,25,11,49,16.80
2018,05,25,11,50,16.80
2018,05,25,11,51,16.80
2018,05,25,11,52,16.80
2018,05,25,11,53,16.90
2018,05,25,11,54,16.90
2018,05,25,11,55,17.00
2018,05,25,11,56,17.00
2018,05,25,11,57,16.90
2018,05,25,11,58,16.90
2018,05,25,11,59,16.90
2018,05,25,12,00,16.90
2018,05,25,12,01,16.90
2018,05,25,12,02,17.00
2018,05,25,12,03,17.10
2018,05,25,12,04,17.10
2018,05,25,12,05,17.20
2018,05,25,12,06,17.20
2018,05,25,12,07,17.20
2018,05,25,12,08,17.20
2018,05,25,12,09,17.30
2018,05,25,12,10,17.30
2018,05,25,12,11,17.40
2018,05,25,12,12,17.40
2018,05,25,12,13,17.30
2018,05,25,12,14,17.30
2018,05,25,12,15,17.30
2018,05,25,12,16,17.20
2018,05,25,12,17,17.10
2018,05,25,12,18,17.10
2018,05,25,12,19,17.00
2018,05,25,12,20,17.00
2018,05,25,12,21,16.90
2018,05,25,12,22,16.90
2018,05,25,12,23,16.90
2018,05,25,12,24,16.90
2018,05,25,12,25,17.00
2018,05,25,12,26,17.00
2018,05,25,12,27,17.00
2018,05,25,12,28,17.00
2018,05,25,12,29,17.00
2018,05,25,12,30,17.00
2018,05,25,12,31,16.90
2018,05,25,12,32,17.00
2018,05,25,12,33,17.00
2018,05,25,12,34,17.00
2018,05,25,12,35,17.00
2018,05,25,12,36,17.10
2018,05,25,12,37,17.10
2018,05,25,12,38,17.20
2018,05,25,12,39,17.20
2018,05,25,12,40,17.30
2018,05,25,12,41,17.30
2018,05,25,12,42,17.30
2018,05,25,12,43,17.40
2018,05,25,12,44,17.40
2018,05,25,12,45,17.50
2018,05,25,12,46,17.60
2018,05,25,12,47,17.70
2018,05,25,12,48,17.80
2018,05,25,12,49,17.80
2018,05,25,12,50,17.90
2018,05,25,12,51,17.90
2018,05,25,12,52,17.90
2018,05,25,12,53,17.90
2018,05,25,12,54,17.90
2018,05,25,12,55,17.90
2018,05,25,12,56,18.00
2018,05,25,12,57,18.00
2018,05,25,12,58,18.10
2018,05,25,12,59,18.20
2018,05,25,13,00,18.30
2018,05,25,13,01,18.40
2018,05,25,13,02,18.50
2018,05,25,13,03,18.60
2018,05,25,13,04,18.70
2018,05,25,13,05,18.90
2018,05,25,13,06,19.00
2018,05,25,13,07,19.10
2018,05,25,13,08,19.10
2018,05,25,13,09,19.20
2018,05,25,13,10,19.20
2018,05,25,13,11,19.30
2018,05,25,13,12,19.30
2018,05,25,13,13,19.30
2018,05,25,13,14,19.30
2018,05,25,13,15,19.40
2018,05,25,13,16,19.50
2018,05,25,13,17,19.50
2018,05,25,13,18,19.60
2018,05,25,13,19,19.60
2018,05,25,13,20,19.60
2018,05,25,13,21,19.50
2018,05,25,13,22,19.50
2018,05,25,13,23,19.50
2018,05,25,13,24,19.50
2018,05,25,13,25,19.40
2018,05,25,13,26,19.40
2018,05,25,13,27,19.40
2018,05,25,13,28,19.40
2018,05,25,13,29,19.40
2018,05,25,13,30,19.40
2018,05,25,13,31,19.40
2018,05,25,13,32,19.40
2018,05,25,13,33,19.30
2018,05,25,13,34,19.30
2018,05,25,13,35,19.30
2018,05,25,13,36,19.20
2018,05,25,13,37,19.20
2018,05,25,13,38,19.10
2018,05,25,13,39,19.10
2018,05,25,13,40,19.10
2018,05,25,13,41,19.10
2018,05,25,13,42,19.10
2018,05,25,13,43,19.00
2018,05,25,13,44,19.00
2018,05,25,13,45,19.10
2018,05,25,13,46,19.00
2018,05,25,13,47,19.00
2018,05,25,13,48,19.00
2018,05,25,13,49,19.10
2018,05,25,13,50,19.10
2018,05,25,13,51,19.10
2018,05,25,13,52,19.20
2018,05,25,13,53,19.20
2018,05,25,13,54,19.30
2018,05,25,13,55,19.30
2018,05,25,13,56,19.30
2018,05,25,13,57,19.40
2018,05,25,13,58,19.50
2018,05,25,13,59,19.60
2018,05,25,14,00,19.70
2018,05,25,14,01,19.70
2018,05,25,14,02,19.80
2018,05,25,14,03,19.80
2018,05,25,14,04,19.90
2018,05,25,14,05,20.00
2018,05,25,14,06,20.00
2018,05,25,14,07,20.00
2018,05,25,14,08,20.00
2018,05,25,14,09,19.90
2018,05,25,14,10,19.70
2018,05,25,14,11,19.60
2018,05,25,14,12,19.50
2018,05,25,14,13,19.40
2018,05,25,14,14,19.30
2018,05,25,14,15,19.40
2018,05,25,14,16,19.40
2018,05,25,14,17,19.50
2018,05,25,14,18,19.50
2018,05,25,14,19,19.50
2018,05,25,14,20,19.40
2018,05,25,14,21,19.50
2018,05,25,14,22,19.50
2018,05,25,14,23,19.50
2018,05,25,14,24,19.50
2018,05,25,14,25,19.50
2018,05,25,14,26,19.50
2018,05,25,14,27,19.60
2018,05,25,14,28,19.60
2018,05,25,14,29,19.70
2018,05,25,14,30,19.70
2018,05,25,14,31,19.80
2018,05,25,14,32,19.70
2018,05,25,14,33,19.70
2018,05,25,14,34,19.60
2018,05,25,14,35,19.50
2018,05,25,14,36,19.40
2018,05,25,14,37,19.40
2018,05,25,14,38,19.30
2018,05,25,14,39,19.20
2018,05,25,14,40,19.20
2018,05,25,14,41,19.30
2018,05,25,14,42,19.30
2018,05,25,14,43,19.40
2018,05,25,14,44,19.50
2018,05,25,14,45,19.60
2018,05,25,14,46,19.60
2018,05,25,14,47,19.60
2018,05,25,14,48,19.60
2018,05,25,14,49,19.60
2018,05,25,14,50,19.60
2018,05,25,14,51,19.60
2018,05,25,14,52,19.50
2018,05,25,14,53,19.40
2018,05,25,14,54,19.40
2018,05,25,14,55,19.30
2018,05,25,14,56,19.30
2018,05,25,14,57,19.30
2018,05,25,14,58,19.30
2018,05,25,14,59,19.20
2018,05,25,15,00,19.20
2018,05,25,15,01,19.20
2018,05,25,15,02,19.10
2018,05,25,15,03,19.10
2018,05,25,15,04,19.10
2018,05,25,15,05,19.20
2018,05,25,15,06,19.20
2018,05,25,15,07,19.20
2018,05,25,15,08,19.20
2018,05,25,15,09,19.30
2018,05,25,15,10,19.30
2018,05,25,15,11,19.40
2018,05,25,15,12,19.50
2018,05,25,15,13,19.50
2018,05,25,15,14,19.50
2018,05,25,15,15,19.40
2018,05,25,15,16,19.30
2018,05,25,15,17,19.10
2018,05,25,15,18,19.00
2018,05,25,15,19,18.90
2018,05,25,15,20,18.90
2018,05,25,15,21,18.80
2018,05,25,15,22,18.80
2018,05,25,15,23,18.80
2018,05,25,15,24,18.90
2018,05,25,15,25,19.00
2018,05,25,15,26,19.10
2018,05,25,15,27,19.20
2018,05,25,15,28,19.20
2018,05,25,15,29,19.30
2018,05,25,15,30,19.30
2018,05,25,15,31,19.30
2018,05,25,15,32,19.30
2018,05,25,15,33,19.30
2018,05,25,15,34,19.30
2018,05,25,15,35,19.20
2018,05,25,15,36,19.20
2018,05,25,15,37,19.20
2018,05,25,15,38,19.10
2018,05,25,15,39,19.10
2018,05,25,15,40,19.20
2018,05,25,15,41,19.20
2018,05,25,15,42,19.30
2018,05,25,15,43,19.40
2018,05,25,15,44,19.50
2018,05,25,15,45,19.60
2018,05,25,15,46,19.80
2018,05,25,15,47,19.90
2018,05,25,15,48,20.10
2018,05,25,15,49,20.30
2018,05,25,15,50,20.50
2018,05,25,15,51,20.70
2018,05,25,15,52,20.80
2018,05,25,15,53,21.00
2018,05,25,15,54,21.10
2018,05,25,15,55,21.10
2018,05,25,15,56,21.10
2018,05,25,15,57,21.10
2018,05,25,15,58,21.00
2018,05,25,15,59,21.00
2018,05,25,16,00,20.90
2018,05,25,16,01,20.90
2018,05,25,16,02,20.90
2018,05,25,16,03,20.90
2018,05,25,16,04,21.00
2018,05,25,16,05,21.10
2018,05,25,16,06,21.10
2018,05,25,16,07,21.20
2018,05,25,16,08,21.20
2018,05,25,16,09,21.30
2018,05,25,16,10,21.40
2018,05,25,16,11,21.50
2018,05,25,16,12,21.60
2018,05,25,16,13,21.70
2018,05,25,16,14,21.80
2018,05,25,16,15,21.90
2018,05,25,16,16,21.90
2018,05,25,16,17,21.90
2018,05,25,16,18,22.00
2018,05,25,16,19,22.00
2018,05,25,16,20,22.10
2018,05,25,16,21,22.10
2018,05,25,16,22,22.00
2018,05,25,16,23,21.80
2018,05,25,16,24,21.70
2018,05,25,16,25,21.50
2018,05,25,16,26,21.30
2018,05,25,16,27,21.10
2018,05,25,16,28,20.90
2018,05,25,16,29,20.80
2018,05,25,16,30,20.80
2018,05,25,16,31,20.70
2018,05,25,16,32,20.60
2018,05,25,16,33,20.60
2018,05,25,16,34,20.60
2018,05,25,16,35,20.70
2018,05,25,16,36,20.80
2018,05,25,16,37,20.80
2018,05,25,16,38,20.80
2018,05,25,16,39,20.80
2018,05,25,16,40,20.70
2018,05,25,16,41,20.50
2018,05,25,16,42,20.40
2018,05,25,16,43,20.30
2018,05,25,16,44,20.30
2018,05,25,16,45,20.20
2018,05,25,16,46,20.20
2018,05,25,16,47,20.20
2018,05,25,16,48,20.20
2018,05,25,16,49,20.20
2018,05,25,16,50,20.10
2018,05,25,16,51,20.00
2018,05,25,16,52,19.90
2018,05,25,16,53,19.80
2018,05,25,16,54,19.80
2018,05,25,16,55,19.80
2018,05,25,16,56,19.70
2018,05,25,16,57,19.60
2018,05,25,16,58,19.60
2018,05,25,16,59,19.50
2018,05,25,17,00,19.50
2018,05,25,17,01,19.50
2018,05,25,17,02,19.50
2018,05,25,17,03,19.40
2018,05,25,17,04,19.50
2018,05,25,17,05,19.50
2018,05,25,17,06,19.50
2018,05,25,17,07,19.60
2018,05,25,17,08,19.60
2018,05,25,17,09,19.70
2018,05,25,17,10,19.70
2018,05,25,17,11,19.70
2018,05,25,17,12,19.70
2018,05,25,17,13,19.80
2018,05,25,17,14,19.80
2018,05,25,17,15,19.80
2018,05,25,17,16,19.80
2018,05,25,17,17,19.80
2018,05,25,17,18,19.90
2018,05,25,17,19,19.90
2018,05,25,17,20,19.80
2018,05,25,17,21,19.80
2018,05,25,17,22,19.80
2018,05,25,17,23,19.90
2018,05,25,17,24,19.90
2018,05,25,17,25,19.90
2018,05,25,17,26,19.80
2018,05,25,17,27,19.80